Tracking 26303 objects as of 1-Dec-2022
HD Live streaming from Space Station
objects crossing your sky now

COSMOS 1408 DEB

Track COSMOS 1408 DEB now!
10-day predictions


NORAD ID: 51305
Int'l Code: 1982-092BDW
Perigee: 423.6 km
Apogee: 476.5 km
Inclination: 82.5 °
Period: 93.4 minutes
Semi major axis: 6821 km
RCS: Unknown
Launch date: September 16, 1982
Source: Commonwealth of Independent States (former USSR) (CIS)
Launch site: PLESETSK MISSILE AND SPACE COMPLEX (PKMTR)

Note: This is SATELLITE DEBRIS
aabbcc
Your satellite tracking list
Your tracking list is empty




NASA's NSSDC Master Catalog

Two Line Element Set (TLE):
1 51305U 82092BDX 22334.35918310  .00011484  00000-0  26940-3 0  9991
2 51305  82.5064  95.9469 0038726  47.9815 312.4716 15.41087388 49825
Source of the keplerian elements: AFSPC